DW4993 Weather Reports


Display with metric or nautical units.
time (UTC)temp
F
wind
direction
speed
MPH
gust
MPH
rain 1hr
in
rain 24hr
in
rain mn
in
humidity
%
barometer
mb
20260901184305 73 236 3.0 6.0 0.00 0.00 0.00 34 1013.3
20260901183805 74 212 3.0 7.0 0.00 0.00 0.00 34 1013.3
20260901183305 74 196 1.0 3.0 0.00 0.00 0.00 35 1013.3
20260901182806 75 50 0.0 5.0 0.00 0.00 0.00 35 1013.3
20260901182305 75 171 1.0 2.0 0.00 0.00 0.00 34 1013.3
20260901181305 74 226 2.0 6.0 0.00 0.00 0.00 36 1013.3
20260901180805 74 186 2.0 7.0 0.00 0.00 0.00 35 1013.4
20260901180305 74 148 0.0 5.0 0.00 0.00 0.00 36 1013.4
20260901175805 73 214 1.0 3.0 0.00 0.00 0.00 36 1013.3
20260901175305 72 278 1.0 6.0 0.00 0.00 0.00 37 1013.4
20260901174804 72 212 2.0 5.0 0.00 0.00 0.00 37 1013.6
20260901173805 70 237 1.0 3.0 0.00 0.00 0.00 40 1013.8
20260901173304 70 249 2.0 3.0 0.00 0.00 0.00 41 1013.8
20260901172806 70 271 1.0 2.0 0.00 0.00 0.00 41 1013.8
20260901172305 70 238 2.0 3.0 0.00 0.00 0.00 39 1013.6
20260901171805 70 201 2.0 5.0 0.00 0.00 0.00 39 1013.6
20260901171306 71 209 2.0 3.0 0.00 0.00 0.00 39 1013.5
20260901170804 71 107 0.0 2.0 0.00 0.00 0.00 40 1013.5
20260901170305 71 230 0.0 2.0 0.00 0.00 0.00 40 1013.5
20260901165806 71 237 1.0 3.0 0.00 0.00 0.00 38 1013.6
20260901165306 71 184 1.0 3.0 0.00 0.00 0.00 39 1013.6
20260901164805 70 231 0.0 2.0 0.00 0.00 0.00 42 1013.6
20260901164304 69 231 1.0 2.0 0.00 0.00 0.00 40 1013.8
20260901163805 69 212 1.0 2.0 0.00 0.00 0.00 41 1013.8
20260901163305 69 269 0.0 2.0 0.00 0.00 0.00 40 1013.6
20260901162306 70 269 1.0 2.0 0.00 0.00 0.00 40 1013.7
20260901161806 69 270 0.0 1.0 0.00 0.00 0.00 41 1013.8
20260901161305 69 269 1.0 2.0 0.00 0.00 0.00 42 1013.5
20260901160804 69 269 1.0 2.0 0.00 0.00 0.00 42 1013.7
20260901160305 68 254 0.0 2.0 0.00 0.00 0.00 44 1013.7
20260901155805 67 271 1.0 2.0 0.00 0.00 0.00 44 1014.0
20260901154805 66 258 1.0 2.0 0.00 0.00 0.00 46 1014.3
20260901154305 65 280 1.0 2.0 0.00 0.00 0.00 46 1014.2
20260901153806 65 1 1.0 2.0 0.00 0.00 0.00 49 1014.3
20260901153305 64 9 1.0 3.0 0.00 0.00 0.00 51 1014.4
20260901152805 62 266 1.0 3.0 0.00 0.00 0.00 52 1014.5
20260901152306 61 267 1.0 2.0 0.00 0.00 0.00 55 1014.9
20260901151305 59 259 1.0 2.0 0.00 0.00 0.00 58 1015.1
20260901150805 58 259 0.0 1.0 0.00 0.00 0.00 61 1015.4
20260901145806 56 291 1.0 2.0 0.00 0.00 0.00 63 1015.5
20260901145306 56 341 1.0 2.0 0.00 0.00 0.00 65 1015.7
20260901144805 55 287 1.0 2.0 0.00 0.00 0.00 66 1015.8
20260901142306 52 251 0.0 1.0 0.00 0.00 0.00 68 1015.7
20260901141806 52 251 0.0 1.0 0.00 0.00 0.00 70 1015.9
20260901140805 51 201 0.0 1.0 0.00 0.00 0.00 71 1015.7
20260901140304 51 199 0.0 1.0 0.00 0.00 0.00 71 1015.7
20260901135806 51 199 0.0 1.0 0.00 0.00 0.00 72 1015.6
20260901135305 51 198 0.0 1.0 0.00 0.00 0.00 72 1015.5
20260901134805 50 198 0.0 1.0 0.00 0.00 0.00 72 1015.4
20260901134305 50 198 0.0 1.0 0.00 0.00 0.00 72 1015.2
20260901133304 50 196 0.0 1.0 0.00 0.00 0.00 73 1015.1
20260901132805 49 196 0.0 1.0 0.00 0.00 0.00 73 1015.0
20260901132307 49 195 0.0 1.0 0.00 0.00 0.00 74 1015.3
20260901131806 48 195 0.0 0.0 0.00 0.00 0.00 75 1015.3
20260901131305 48 195 0.0 1.0 0.00 0.00 0.00 75 1014.9
20260901130305 49 195 0.0 1.0 0.00 0.00 0.00 74 1014.8
20260901125805 49 194 0.0 1.0 0.00 0.00 0.00 73 1014.9
20260901125308 48 195 1.0 2.0 0.00 0.00 0.00 74 1014.9
20260901124805 48 194 0.0 1.0 0.00 0.00 0.00 76 1015.1
20260901124304 47 192 0.0 1.0 0.00 0.00 0.00 78 1015.2
20260901123305 47 192 0.0 0.0 0.00 0.00 0.00 79 1015.0
20260901122805 47 192 0.0 0.0 0.00 0.00 0.00 79 1015.1
20260901122306 47 192 0.0 0.0 0.00 0.00 0.00 79 1015.1
20260901121806 47 192 0.0 0.0 0.00 0.00 0.00 78 1015.1
20260901121304 47 192 0.0 0.0 0.00 0.00 0.00 78 1015.2
20260901120805 48 192 0.0 0.0 0.00 0.00 0.00 78 1015.2
20260901120304 48 192 0.0 0.0 0.00 0.00 0.00 76 1015.1
20260901115806 48 192 0.0 0.0 0.00 0.00 0.00 76 1015.4
20260901115306 47 192 0.0 0.0 0.00 0.00 0.00 78 1015.2
20260901114805 48 192 0.0 0.0 0.00 0.00 0.00 77 1015.0
20260901114304 48 192 0.0 0.0 0.00 0.00 0.00 77 1015.3
20260901113805 47 192 0.0 0.0 0.00 0.00 0.00 77 1015.1
20260901113304 47 192 0.0 0.0 0.00 0.00 0.00 78 1014.9
20260901112805 48 192 0.0 0.0 0.00 0.00 0.00 76 1014.9
20260901112306 48 192 0.0 0.0 0.00 0.00 0.00 76 1015.0
20260901111806 48 192 0.0 0.0 0.00 0.00 0.00 75 1014.9
20260901111305 49 192 0.0 0.0 0.00 0.00 0.00 75 1014.8
20260901110805 48 192 0.0 1.0 0.00 0.00 0.00 75 1015.0
20260901110304 49 192 0.0 0.0 0.00 0.00 0.00 74 1014.8
20260901105806 49 192 0.0 0.0 0.00 0.00 0.00 75 1014.7
20260901104804 49 192 0.0 0.0 0.00 0.00 0.00 74 1014.6
20260901104305 49 192 0.0 1.0 0.00 0.00 0.00 73 1014.7
20260901103806 49 192 0.0 1.0 0.00 0.00 0.00 73 1014.7
20260901103305 49 192 0.0 2.0 0.00 0.00 0.00 74 1014.7
20260901102804 48 160 0.0 0.0 0.00 0.00 0.00 75 1015.0
20260901102306 48 160 0.0 0.0 0.00 0.00 0.00 76 1014.7
20260901101806 48 160 0.0 0.0 0.00 0.00 0.00 76 1014.7
20260901100805 48 160 0.0 0.0 0.00 0.00 0.00 75 1014.6
20260901095805 49 160 0.0 0.0 0.00 0.00 0.00 75 1014.9
20260901095306 49 160 0.0 0.0 0.00 0.00 0.00 74 1014.7
20260901094804 49 160 0.0 0.0 0.00 0.00 0.00 73 1014.8
20260901094304 50 160 0.0 0.0 0.00 0.00 0.00 72 1014.7
20260901093806 50 160 0.0 0.0 0.00 0.00 0.00 72 1014.9
20260901093305 50 160 0.0 0.0 0.00 0.00 0.00 74 1014.9
20260901092804 51 160 0.0 0.0 0.00 0.00 0.00 72 1014.9
20260901092305 51 160 0.0 0.0 0.00 0.00 0.00 70 1014.8
20260901091805 50 160 0.0 0.0 0.00 0.00 0.00 70 1014.7
20260901091305 50 160 0.0 0.0 0.00 0.00 0.00 71 1015.0
20260901090305 51 160 0.0 0.0 0.00 0.00 0.00 70 1015.0
20260901085806 51 160 0.0 0.0 0.00 0.00 0.00 70 1015.0
20260901084804 50 160 0.0 0.0 0.00 0.00 0.00 71 1015.0
20260901084306 51 160 0.0 0.0 0.00 0.00 0.00 71 1015.2
20260901083804 51 160 0.0 0.0 0.00 0.00 0.00 70 1015.4
20260901083304 52 160 0.0 0.0 0.00 0.00 0.00 68 1015.1
20260901082306 51 160 0.0 0.0 0.00 0.00 0.00 69 1015.3
20260901081804 52 160 0.0 0.0 0.00 0.00 0.00 69 1015.0
20260901081304 51 160 0.0 0.0 0.00 0.00 0.00 71 1015.7
20260901080805 51 160 0.0 0.0 0.00 0.00 0.00 72 1015.2
20260901080306 51 160 0.0 0.0 0.00 0.00 0.00 72 1015.5
20260901075805 51 160 0.0 0.0 0.00 0.00 0.00 70 1015.3
20260901075307 51 160 0.0 0.0 0.00 0.00 0.00 69 1015.6
20260901074805 51 160 0.0 0.0 0.00 0.00 0.00 69 1015.5
20260901074304 51 160 0.0 0.0 0.00 0.00 0.00 69 1015.8
20260901073305 52 160 0.0 0.0 0.00 0.00 0.00 69 1015.8
20260901072806 52 160 0.0 0.0 0.00 0.00 0.00 68 1015.6
20260901072309 52 160 0.0 0.0 0.00 0.00 0.00 68 1015.8
20260901071805 52 160 0.0 0.0 0.00 0.00 0.00 68 1015.8
20260901071305 53 160 0.0 0.0 0.00 0.00 0.00 68 1015.7
20260901070305 53 160 0.0 0.0 0.00 0.00 0.00 65 1015.7
20260901065804 53 160 0.0 0.0 0.00 0.00 0.00 66 1015.9
20260901065305 53 160 0.0 0.0 0.00 0.00 0.00 67 1015.8
20260901064806 53 160 0.0 0.0 0.00 0.00 0.00 67 1015.8
20260901064304 53 160 0.0 0.0 0.00 0.00 0.00 67 1015.9
20260901063805 54 160 0.0 0.0 0.00 0.00 0.00 65 1015.7
20260901062805 53 160 0.0 0.0 0.00 0.00 0.00 64 1015.7
20260901061805 55 160 0.0 0.0 0.00 0.00 0.00 61 1015.7
20260901061305 55 160 0.0 0.0 0.00 0.00 0.00 60 1015.7
20260901060820 55 160 0.0 0.0 0.00 0.00 0.00 59 1015.7
20260901060305 56 161 0.0 0.0 0.00 0.00 0.00 58 1015.6
20260901055805 56 160 0.0 0.0 0.00 0.00 0.00 57 1015.7
20260901055306 57 161 0.0 0.0 0.00 0.00 0.00 56 1015.5
20260901054805 57 161 0.0 0.0 0.00 0.00 0.00 56 1015.7
20260901053804 58 161 0.0 1.0 0.00 0.00 0.00 54 1015.7
20260901053305 57 161 0.0 1.0 0.00 0.00 0.00 54 1015.8
20260901052805 58 161 0.0 0.0 0.00 0.00 0.00 54 1015.7
20260901052307 58 161 0.0 0.0 0.00 0.00 0.00 53 1015.9
20260901051805 59 161 0.0 1.0 0.00 0.00 0.00 52 1015.8
20260901050305 59 195 0.0 1.0 0.00 0.00 0.00 50 1015.7
20260901045306 60 194 0.0 1.0 0.00 0.00 0.00 50 1015.6
20260901044804 60 193 0.0 1.0 0.00 0.00 0.00 50 1015.8
20260901043805 60 183 0.0 1.0 0.00 0.00 0.00 50 1015.9
20260901042804 60 192 0.0 1.0 0.00 0.00 0.00 49 1015.8
20260901042306 60 161 0.0 1.0 0.00 0.00 0.00 49 1015.8
20260901041804 61 132 0.0 1.0 0.00 0.00 0.00 49 1016.0
20260901041306 61 77 0.0 1.0 0.00 0.00 0.00 48 1016.0
20260901040805 61 163 0.0 1.0 0.00 0.00 0.00 48 1015.9
20260901040305 61 158 0.0 1.0 0.00 0.00 0.00 48 1015.8
20260901035804 61 105 0.0 1.0 0.00 0.00 0.00 48 1015.8
20260901035306 62 178 0.0 1.0 0.00 0.00 0.00 47 1015.9
20260901034305 62 178 0.0 1.0 0.00 0.00 0.00 47 1015.8
20260901033805 62 178 0.0 2.0 0.00 0.00 0.00 47 1015.7
20260901033306 62 95 0.0 1.0 0.00 0.00 0.00 47 1015.7
20260901032805 63 135 0.0 1.0 0.00 0.00 0.00 46 1015.7
20260901032306 63 122 0.0 1.0 0.00 0.00 0.00 46 1015.7
20260901031805 63 123 0.0 1.0 0.00 0.00 0.00 46 1015.5
20260901030804 63 119 0.0 0.0 0.00 0.00 0.00 47 1015.6
20260901025805 63 118 0.0 2.0 0.00 0.00 0.00 47 1015.8
20260901025306 64 118 0.0 0.0 0.00 0.00 0.00 46 1015.8
20260901024305 65 115 0.0 1.0 0.00 0.00 0.00 45 1015.8
20260901023804 65 115 0.0 1.0 0.00 0.00 0.00 44 1015.6
20260901023305 65 220 0.0 1.0 0.00 0.00 0.00 44 1015.9
20260901022804 66 211 0.0 2.0 0.00 0.00 0.00 43 1015.7
20260901022306 66 166 0.0 1.0 0.00 0.00 0.00 42 1015.7
20260901021305 67 178 0.0 1.0 0.00 0.00 0.00 41 1015.7
20260901020804 68 261 0.0 1.0 0.00 0.00 0.00 40 1015.5
20260901020304 68 215 0.0 1.0 0.00 0.00 0.00 39 1015.5
20260901015306 69 192 1.0 2.0 0.00 0.00 0.00 38 1015.8
20260901014804 70 136 1.0 3.0 0.00 0.00 0.00 37 1015.6
20260901014304 71 84 1.0 3.0 0.00 0.00 0.00 36 1015.4
20260901013805 71 245 0.0 5.0 0.00 0.00 0.00 35 1015.3
20260901012804 72 111 1.0 3.0 0.00 0.00 0.00 34 1015.1
20260901012306 73 224 1.0 3.0 0.00 0.00 0.00 33 1015.3
20260901011805 73 144 1.0 2.0 0.00 0.00 0.00 34 1015.0
20260901011305 73 199 1.0 3.0 0.00 0.00 0.00 33 1015.2
20260901010804 74 184 1.0 3.0 0.00 0.00 0.00 32 1015.1
20260901010306 74 221 2.0 3.0 0.00 0.00 0.00 31 1015.0
20260901005804 75 123 1.0 2.0 0.00 0.00 0.00 31 1014.9
20260901005307 74 234 1.0 3.0 0.00 0.00 0.00 31 1015.2
20260901004306 74 182 1.0 5.0 0.00 0.00 0.00 32 1015.0
20260901003804 74 150 2.0 6.0 0.00 0.00 0.00 31 1015.2
20260901002805 74 187 1.0 5.0 0.00 0.00 0.00 31 1015.0
20260901002307 74 86 2.0 6.0 0.00 0.02 0.00 31 1014.7
20260901001805 75 155 3.0 5.0 0.00 0.02 0.00 31 1014.9
20260901001305 75 182 1.0 3.0 0.00 0.02 0.00 31 1014.8
20260901000805 74 196 2.0 8.0 0.00 0.02 0.00 31 1015.2
20260901000306 74 168 3.0 8.0 0.00 0.02 0.00 31 1015.1
20260831235804 75 195 3.0 7.0 0.00 0.02 0.00 31 1014.9
20260831235306 75 128 2.0 5.0 0.00 0.02 0.00 30 1015.1
20260831234805 75 173 2.0 8.0 0.00 0.02 0.00 31 1015.2
20260831234305 75 193 2.0 8.0 0.00 0.02 0.00 31 1015.0
20260831233804 75 218 3.0 9.0 0.00 0.02 0.00 30 1015.0
20260831233305 76 138 1.0 5.0 0.00 0.02 0.00 30 1014.9
20260831232805 76 168 2.0 5.0 0.00 0.02 0.00 30 1014.7
20260831232306 75 194 1.0 3.0 0.00 0.02 0.00 29 1014.9
20260831231805 75 133 2.0 6.0 0.00 0.02 0.00 31 1014.9
20260831231305 76 160 3.0 7.0 0.00 0.02 0.00 29 1014.7
20260831230305 76 133 1.0 5.0 0.00 0.02 0.00 30 1014.9
20260831225804 76 204 2.0 8.0 0.00 0.02 0.00 29 1015.0
20260831225306 76 140 1.0 3.0 0.00 0.02 0.00 30 1014.8
20260831224305 76 214 1.0 3.0 0.00 0.02 0.00 30 1015.2
20260831223804 75 174 3.0 9.0 0.00 0.02 0.00 30 1015.2
20260831222805 76 173 2.0 7.0 0.00 0.02 0.00 29 1015.1
20260831222306 76 101 1.0 3.0 0.00 0.02 0.00 29 1014.9
20260831221805 76 169 2.0 5.0 0.00 0.02 0.00 29 1015.3
20260831221304 76 186 2.0 7.0 0.00 0.02 0.00 29 1015.1
20260831215805 75 232 2.0 8.0 0.00 0.02 0.00 29 1015.3
20260831215306 75 240 2.0 6.0 0.00 0.02 0.00 28 1015.3
20260831214805 75 319 2.0 8.0 0.00 0.02 0.00 28 1015.3
20260831214306 75 219 1.0 7.0 0.00 0.02 0.00 29 1015.5
20260831213804 74 228 4.0 8.0 0.00 0.02 0.00 28 1015.4
20260831213305 75 214 3.0 7.0 0.00 0.02 0.00 27 1015.4
20260831212805 75 223 5.0 7.0 0.00 0.02 0.00 27 1015.4
20260831212306 74 160 0.0 6.0 0.00 0.02 0.00 28 1015.5
20260831211804 74 244 3.0 7.0 0.00 0.02 0.00 27 1015.5
20260831210305 74 226 2.0 5.0 0.00 0.02 0.00 29 1015.5
20260831205804 74 233 2.0 10.0 0.00 0.02 0.00 29 1015.8
20260831204805 73 240 2.0 6.0 0.00 0.02 0.00 31 1015.9
20260831204305 73 81 2.0 6.0 0.00 0.02 0.00 31 1016.0
20260831203804 73 259 2.0 5.0 0.00 0.02 0.00 30 1015.8
20260831203305 73 244 2.0 7.0 0.00 0.02 0.00 31 1016.0
20260831202805 73 240 3.0 7.0 0.00 0.02 0.00 31 1016.2
20260831202306 73 220 4.0 8.0 0.00 0.02 0.00 31 1016.1
20260831201304 72 258 2.0 6.0 0.00 0.02 0.00 33 1016.4
20260831200805 72 267 2.0 3.0 0.00 0.02 0.00 33 1016.5
20260831200305 72 353 1.0 5.0 0.00 0.02 0.00 34 1016.4
20260831195804 73 187 2.0 3.0 0.00 0.02 0.00 32 1016.4
20260831195306 72 142 2.0 6.0 0.00 0.02 0.00 33 1016.6
20260831194805 72 133 2.0 5.0 0.00 0.02 0.00 33 1016.7
20260831194305 71 169 1.0 5.0 0.00 0.02 0.00 32 1016.8
20260831193305 71 255 2.0 5.0 0.00 0.02 0.00 32 1016.8
20260831192805 71 221 3.0 6.0 0.00 0.02 0.00 32 1017.0
20260831192305 71 237 2.0 8.0 0.00 0.02 0.00 31 1016.9
20260831191804 71 235 3.0 6.0 0.00 0.02 0.00 33 1017.0
20260831191305 70 232 2.0 6.0 0.00 0.02 0.00 33 1017.2
20260831190304 70 230 4.0 10.0 0.00 0.02 0.00 33 1017.3
20260831185306 70 248 1.0 5.0 0.00 0.02 0.00 33 1017.3
20260831184805 71 241 1.0 2.0 0.00 0.02 0.00 33 1017.3